CSN3335 ZSHC-ZUCK

Flight info

Callsign CSN3335
Flight time N/A
Altitude 36100
Route NIV93D NIVIK W135 DOGVI W545 VEMEX W73 MADUK W51 LEGIV W164 ADGOL W50 XSH W80 OPAMU OPAMU1J
Aircraft A320/M-SDE3FGHIRWY/LB1

Departure

Time 2026-04-30 14:52
Airport Hangzhou Xiaoshan International Airport (ZSHC)

Arrival

Time N/A
Airport Chongqing Jiangbei International Airport (ZUCK)
Time Latitude Longitude Altitude Speed Heading
2026-04-30 14:23 30.24067 120.43241 55 ft 0 kts 228°
2026-04-30 14:41 30.24068 120.43243 53 ft 0 kts 229°
2026-04-30 14:41 30.24071 120.43247 53 ft 2 kts 230°
2026-04-30 14:42 30.24083 120.43262 50 ft 2 kts 228°
2026-04-30 14:42 30.24094 120.43276 54 ft 2 kts 252°
2026-04-30 14:42 30.24100 120.43295 52 ft 2 kts 279°
2026-04-30 14:42 30.24097 120.43306 52 ft 0 kts 317°
2026-04-30 14:47 30.24099 120.43304 49 ft 3 kts 318°
2026-04-30 14:47 30.24164 120.43300 52 ft 11 kts 18°
2026-04-30 14:47 30.24208 120.43356 52 ft 9 kts 58°
2026-04-30 14:47 30.24235 120.43412 54 ft 7 kts 63°
2026-04-30 14:48 30.24259 120.43456 52 ft 6 kts 47°
2026-04-30 14:48 30.24289 120.43473 54 ft 4 kts
2026-04-30 14:48 30.24312 120.43467 54 ft 3 kts 341°
2026-04-30 14:48 30.24354 120.43447 54 ft 10 kts 335°
2026-04-30 14:49 30.24421 120.43409 52 ft 18 kts 333°
2026-04-30 14:49 30.24692 120.43231 51 ft 39 kts 321°
2026-04-30 14:49 30.24655 120.43099 50 ft 36 kts 199°
2026-04-30 14:49 30.24589 120.43004 54 ft 12 kts 250°
2026-04-30 14:50 30.24395 120.42570 54 ft 45 kts 243°
2026-04-30 14:50 30.24268 120.42280 54 ft 31 kts 244°
2026-04-30 14:51 30.24394 120.42242 52 ft 13 kts 40°
2026-04-30 14:51 30.24536 120.42452 50 ft 72 kts 62°
2026-04-30 14:51 30.25446 120.44537 266 ft 195 kts 64°
2026-04-30 14:52 30.26079 120.46048 725 ft 211 kts 65°
2026-04-30 14:52 30.27351 120.49194 1683 ft 228 kts 65°
2026-04-30 14:52 30.27968 120.50774 2211 ft 215 kts 64°
2026-04-30 14:53 30.29365 120.53862 2236 ft 215 kts 60°
2026-04-30 14:53 30.30094 120.55362 2340 ft 213 kts 60°
2026-04-30 14:54 30.31537 120.58415 3092 ft 225 kts 60°
2026-04-30 14:54 30.33472 120.61231 4771 ft 218 kts 25°
2026-04-30 14:55 30.36343 120.61642 5822 ft 208 kts 341°
2026-04-30 14:55 30.37602 120.60860 5893 ft 206 kts 320°
2026-04-30 14:55 30.38914 120.57950 5905 ft 214 kts 277°
2026-04-30 14:56 30.38057 120.54625 5907 ft 225 kts 247°
2026-04-30 14:56 30.36464 120.51053 6136 ft 271 kts 247°
2026-04-30 14:57 30.35589 120.49099 6388 ft 275 kts 247°
2026-04-30 14:57 30.33809 120.45134 6769 ft 278 kts 247°
2026-04-30 14:58 30.32044 120.41146 6956 ft 281 kts 248°
2026-04-30 14:58 30.31156 120.39138 7860 ft 281 kts 248°
2026-04-30 14:58 30.29370 120.35102 9707 ft 282 kts 248°
2026-04-30 14:59 30.27574 120.31048 11414 ft 284 kts 249°
2026-04-30 15:00 30.24834 120.24917 13615 ft 289 kts 249°
2026-04-30 15:00 30.22995 120.20786 13791 ft 288 kts 249°
2026-04-30 15:01 30.21085 120.16703 13793 ft 293 kts 240°
2026-04-30 15:01 30.20270 120.15450 13801 ft 294 kts 240°
2026-04-30 15:01 30.17369 120.11058 13787 ft 294 kts 239°
2026-04-30 15:02 30.16121 120.09176 13804 ft 295 kts 239°
2026-04-30 15:02 30.14871 120.07288 13806 ft 296 kts 239°
2026-04-30 15:03 30.11123 120.01629 13796 ft 295 kts 239°
2026-04-30 15:03 30.08630 119.97880 13801 ft 297 kts 239°
2026-04-30 15:04 30.06113 119.94106 13787 ft 297 kts 239°
2026-04-30 15:04 30.02353 119.88453 13796 ft 296 kts 239°
2026-04-30 15:05 29.98607 119.82820 13793 ft 295 kts 239°
2026-04-30 15:06 29.96507 119.79679 13786 ft 296 kts 239°
2026-04-30 15:06 29.93999 119.75924 13793 ft 296 kts 239°
2026-04-30 15:07 29.91482 119.72152 13791 ft 297 kts 239°
2026-04-30 15:07 29.88963 119.68381 13814 ft 297 kts 238°
2026-04-30 15:08 29.86439 119.64612 13815 ft 297 kts 238°
2026-04-30 15:08 29.82664 119.58986 13803 ft 297 kts 238°
2026-04-30 15:09 29.80140 119.55226 13812 ft 297 kts 238°
2026-04-30 15:09 29.77604 119.51452 13808 ft 298 kts 238°
2026-04-30 15:10 29.75064 119.47684 13808 ft 299 kts 238°
2026-04-30 15:11 29.69966 119.40116 13815 ft 300 kts 238°
2026-04-30 15:11 29.68081 119.37284 13709 ft 299 kts 239°
2026-04-30 15:12 29.67160 119.35766 13500 ft 297 kts 242°
2026-04-30 15:13 29.65791 119.31571 13218 ft 277 kts 283°
2026-04-30 15:14 29.72262 119.29658 13815 ft 307 kts 22°
2026-04-30 15:14 29.77910 119.33051 13812 ft 304 kts 18°
2026-04-30 15:16 29.87715 119.32614 13817 ft 280 kts 317°
2026-04-30 15:17 29.90185 119.24365 13808 ft 280 kts 282°
2026-04-30 15:18 29.91841 119.13221 13801 ft 283 kts 282°
2026-04-30 15:19 29.92839 119.06509 13781 ft 283 kts 282°